�������l�o���
Date,Time,MP-1(��Sv/h),MP-2(��Sv/h),MP-3(��Sv/h),MP-4(��Sv/h),MP-5(��Sv/h),MP-6(��Sv/h),MP-7(��Sv/h),����,����(m/s),���J
2016/02/18,00:00,0.461,0.266,0.482,0.433,0.398,0.220,0.193,�k�k��,4.0,��
2016/02/18,00:10,0.459,0.267,0.483,0.435,0.398,0.220,0.194,�k,4.9,��
2016/02/18,00:20,0.460,0.268,0.482,0.435,0.397,0.220,0.194,�k,5.5,��
2016/02/18,00:30,0.461,0.267,0.483,0.436,0.398,0.220,0.193,�k,4.2,��
2016/02/18,00:40,0.461,0.267,0.484,0.433,0.398,0.219,0.193,�k,3.9,��
2016/02/18,00:50,0.459,0.268,0.484,0.434,0.399,0.221,0.193,�k�k��,3.1,��
2016/02/18,01:00,0.460,0.266,0.483,0.435,0.398,0.220,0.192,�k,2.6,��
2016/02/18,01:10,0.459,0.268,0.482,0.434,0.398,0.220,0.193,�k,2.1,��
2016/02/18,01:20,0.461,0.267,0.482,0.434,0.400,0.219,0.192,�k�k��,1.7,��
2016/02/18,01:30,0.460,0.266,0.483,0.436,0.398,0.219,0.193,�k,2.0,��
2016/02/18,01:40,0.461,0.267,0.484,0.435,0.397,0.219,0.193,�k�k��,1.3,��
2016/02/18,01:50,0.459,0.267,0.484,0.434,0.398,0.220,0.192,-,CALM,��
2016/02/18,02:00,0.459,0.267,0.482,0.435,0.398,0.220,0.193,-,CALM,��
2016/02/18,02:10,0.461,0.266,0.481,0.435,0.398,0.219,0.193,-,CALM,��
2016/02/18,02:20,0.460,0.267,0.481,0.435,0.399,0.219,0.192,-,CALM,��
2016/02/18,02:30,0.461,0.267,0.483,0.433,0.398,0.219,0.192,-,CALM,��
2016/02/18,02:40,0.458,0.267,0.485,0.433,0.396,0.218,0.193,-,CALM,��
2016/02/18,02:50,0.459,0.267,0.482,0.434,0.398,0.219,0.193,��쐼,0.6,��
2016/02/18,03:00,0.460,0.266,0.481,0.434,0.399,0.219,0.193,��쓌,0.8,��
2016/02/18,03:10,0.459,0.267,0.481,0.434,0.397,0.219,0.192,��쓌,1.0,��
2016/02/18,03:20,0.460,0.268,0.482,0.433,0.398,0.219,0.193,�쓌,0.7,��
2016/02/18,03:30,0.459,0.266,0.483,0.434,0.398,0.219,0.193,��,1.2,��
2016/02/18,03:40,0.461,0.267,0.483,0.434,0.398,0.219,0.193,��,1.1,��
2016/02/18,03:50,0.460,0.267,0.482,0.433,0.397,0.219,0.192,�쓌,1.1,��
2016/02/18,04:00,0.458,0.266,0.484,0.435,0.397,0.218,0.192,��쓌,0.9,��
2016/02/18,04:10,0.459,0.267,0.481,0.433,0.397,0.219,0.193,��쐼,0.9,��
2016/02/18,04:20,0.458,0.267,0.482,0.434,0.397,0.219,0.193,-,CALM,��
2016/02/18,04:30,0.459,0.266,0.483,0.434,0.399,0.219,0.192,�k�k��,0.8,��
2016/02/18,04:40,0.459,0.265,0.484,0.434,0.398,0.220,0.193,-,CALM,��
2016/02/18,04:50,0.459,0.267,0.483,0.434,0.397,0.219,0.193,�k�k��,1.5,��
2016/02/18,05:00,0.459,0.266,0.483,0.433,0.397,0.218,0.193,�k��,0.6,��
2016/02/18,05:10,0.458,0.267,0.483,0.435,0.398,0.219,0.193,�k�k��,1.9,��
2016/02/18,05:20,0.459,0.267,0.483,0.435,0.398,0.219,0.193,�k�k��,2.0,��
2016/02/18,05:30,0.461,0.266,0.484,0.434,0.399,0.219,0.193,�k,3.8,��
2016/02/18,05:40,0.460,0.266,0.482,0.432,0.398,0.219,0.192,�k�k��,6.9,��
2016/02/18,05:50,0.458,0.266,0.482,0.433,0.398,0.219,0.192,�k,5.0,��
2016/02/18,06:00,0.459,0.267,0.483,0.435,0.398,0.220,0.193,�k�k��,3.5,��
2016/02/18,06:10,0.460,0.266,0.483,0.434,0.397,0.218,0.193,�k�k��,3.4,��
2016/02/18,06:20,0.459,0.267,0.482,0.433,0.397,0.217,0.193,�k�k��,3.3,��
2016/02/18,06:30,0.458,0.267,0.482,0.434,0.397,0.218,0.191,���k��,2.2,��
2016/02/18,06:40,0.458,0.267,0.482,0.434,0.399,0.218,0.193,-,CALM,��
2016/02/18,06:50,0.458,0.266,0.482,0.433,0.398,0.219,0.192,��,1.5,��
2016/02/18,07:00,0.458,0.266,0.482,0.434,0.398,0.219,0.193,�쓌,1.3,��
2016/02/18,07:10,0.459,0.266,0.480,0.431,0.397,0.219,0.193,�쓌,2.3,��
2016/02/18,07:20,0.460,0.266,0.481,0.432,0.398,0.219,0.192,��,4.0,��
2016/02/18,07:30,0.458,0.267,0.482,0.432,0.398,0.218,0.192,��,6.3,��
2016/02/18,07:40,0.458,0.266,0.481,0.432,0.397,0.219,0.193,��,6.7,��
2016/02/18,07:50,0.458,0.267,0.480,0.432,0.397,0.218,0.192,��,7.5,��
2016/02/18,08:00,0.458,0.266,0.481,0.435,0.396,0.219,0.192,��,7.5,��
2016/02/18,08:10,0.458,0.265,0.484,0.431,0.396,0.219,0.192,��,5.3,��
2016/02/18,08:20,0.459,0.267,0.481,0.433,0.396,0.219,0.191,��,5.3,��
2016/02/18,08:30,0.459,0.267,0.483,0.433,0.397,0.219,0.192,��,6.5,��
2016/02/18,08:40,0.458,0.266,0.481,0.432,0.396,0.219,0.191,��,6.6,��
2016/02/18,08:50,0.459,0.265,0.482,0.432,0.396,0.217,0.191,��,6.2,��
2016/02/18,09:00,0.459,0.266,0.482,0.434,0.396,0.218,0.191,��쓌,5.9,��
2016/02/18,09:10,0.458,0.265,0.481,0.432,0.398,0.218,0.192,��,6.0,��
2016/02/18,09:20,0.460,0.265,0.481,0.431,0.397,0.218,0.192,��쓌,6.1,��
2016/02/18,09:30,0.459,0.265,0.483,0.434,0.396,0.220,0.192,��쓌,3.2,��
2016/02/18,09:40,0.457,0.265,0.482,0.432,0.397,0.219,0.192,��쓌,5.6,��
2016/02/18,09:50,0.459,0.265,0.480,0.434,0.397,0.219,0.191,��,5.5,��
2016/02/18,10:00,0.457,0.265,0.482,0.431,0.397,0.219,0.192,��,6.5,��
2016/02/18,10:10,0.457,0.265,0.482,0.433,0.399,0.218,0.192,��,8.4,��
2016/02/18,10:20,0.458,0.266,0.480,0.433,0.398,0.219,0.191,��,10.0,��
2016/02/18,10:30,0.456,0.266,0.482,0.432,0.397,0.219,0.193,��,10.3,��
2016/02/18,10:40,0.460,0.266,0.484,0.436,0.400,0.219,0.192,��,9.2,��
2016/02/18,10:50,0.459,0.267,0.481,0.434,0.397,0.220,0.192,��,9.2,��
2016/02/18,11:00,0.461,0.266,0.482,0.434,0.399,0.220,0.192,��,8.4,��
2016/02/18,11:10,0.458,0.266,0.483,0.433,0.399,0.219,0.191,��,9.5,��
2016/02/18,11:20,0.459,0.265,0.480,0.431,0.398,0.219,0.193,��,9.8,��
2016/02/18,11:30,0.457,0.265,0.482,0.435,0.401,0.219,0.192,��,10.7,��
2016/02/18,11:40,0.462,0.264,0.480,0.430,0.397,0.219,0.192,��,10.6,��
2016/02/18,11:50,0.458,0.265,0.480,0.436,0.401,0.220,0.193,��쓌,10.7,��
2016/02/18,12:00,0.459,0.266,0.480,0.433,0.399,0.219,0.192,��쓌,10.1,��
2016/02/18,12:10,0.459,0.266,0.480,0.434,0.400,0.219,0.193,��,13.1,��
2016/02/18,12:20,0.459,0.266,0.482,0.436,0.399,0.220,0.191,��,11.5,��
2016/02/18,12:30,0.462,0.267,0.478,0.434,0.398,0.219,0.191,��쓌,12.8,��
2016/02/18,12:40,0.460,0.266,0.482,0.436,0.401,0.220,0.192,��,14.0,��
2016/02/18,12:50,0.462,0.267,0.479,0.434,0.397,0.220,0.193,��,13.4,��
2016/02/18,13:00,0.458,0.267,0.481,0.435,0.400,0.220,0.192,��,13.1,��
2016/02/18,13:10,0.464,0.266,0.479,0.435,0.401,0.220,0.193,��,13.4,��
2016/02/18,13:20,0.462,0.267,0.483,0.433,0.399,0.220,0.193,��,11.8,��
2016/02/18,13:30,0.463,0.266,0.479,0.435,0.400,0.219,0.193,��,12.3,��
2016/02/18,13:40,0.463,0.267,0.483,0.433,0.400,0.220,0.193,��쓌,11.5,��
2016/02/18,13:50,0.462,0.266,0.479,0.436,0.402,0.220,0.192,��,12.3,��
2016/02/18,14:00,0.464,0.266,0.482,0.435,0.398,0.220,0.193,��쓌,12.5,��
2016/02/18,14:10,0.460,0.266,0.481,0.436,0.401,0.219,0.192,��,12.3,��
2016/02/18,14:20,0.461,0.266,0.483,0.437,0.401,0.219,0.193,��,12.9,��
2016/02/18,14:30,0.461,0.267,0.483,0.436,0.400,0.220,0.193,��쓌,11.5,��
2016/02/18,14:40,0.461,0.267,0.480,0.436,0.403,0.220,0.194,��,12.9,��
2016/02/18,14:50,0.464,0.267,0.485,0.436,0.399,0.219,0.194,��,12.6,��
2016/02/18,15:00,0.461,0.268,0.484,0.438,0.401,0.220,0.193,��,12.0,��
2016/02/18,15:10,0.460,0.267,0.483,0.437,0.400,0.221,0.195,��쓌,12.5,��
2016/02/18,15:20,0.462,0.267,0.485,0.437,0.399,0.220,0.193,��쓌,12.0,��
2016/02/18,15:30,0.462,0.268,0.481,0.436,0.400,0.219,0.193,��쓌,11.1,��
2016/02/18,15:40,0.460,0.269,0.483,0.437,0.400,0.218,0.192,��,11.8,��
2016/02/18,15:50,0.463,0.267,0.484,0.437,0.399,0.220,0.194,��쓌,10.6,��
2016/02/18,16:00,0.461,0.267,0.482,0.436,0.401,0.219,0.193,��,10.1,��
2016/02/18,16:10,0.463,0.269,0.483,0.435,0.400,0.220,0.193,��,8.5,��
2016/02/18,16:20,0.464,0.268,0.482,0.437,0.399,0.221,0.194,��,7.6,��
2016/02/18,16:30,0.462,0.268,0.482,0.435,0.398,0.219,0.193,��,7.9,��
2016/02/18,16:40,0.462,0.269,0.483,0.434,0.399,0.220,0.194,��,9.8,��
2016/02/18,16:50,0.462,0.267,0.483,0.436,0.399,0.219,0.193,��,8.9,��
2016/02/18,17:00,0.461,0.268,0.482,0.435,0.399,0.219,0.193,��,7.4,��
2016/02/18,17:10,0.462,0.267,0.483,0.435,0.398,0.218,0.193,��쐼,9.2,��
2016/02/18,17:20,0.463,0.268,0.485,0.436,0.399,0.219,0.193,��쐼,8.9,��
2016/02/18,17:30,0.461,0.267,0.483,0.436,0.397,0.219,0.192,��쐼,7.0,��
2016/02/18,17:40,0.461,0.267,0.482,0.434,0.399,0.220,0.193,��쐼,4.9,��
2016/02/18,17:50,0.463,0.267,0.485,0.434,0.399,0.221,0.194,��쐼,5.5,��
2016/02/18,18:00,0.462,0.268,0.482,0.435,0.398,0.219,0.194,��쐼,6.5,��
2016/02/18,18:10,0.463,0.267,0.483,0.435,0.399,0.219,0.193,��쐼,6.2,��
2016/02/18,18:20,0.462,0.266,0.484,0.436,0.399,0.218,0.193,��쐼,7.1,��
2016/02/18,18:30,0.462,0.268,0.482,0.435,0.396,0.219,0.193,��쐼,7.3,��
2016/02/18,18:40,0.463,0.267,0.482,0.437,0.397,0.219,0.193,�쐼,7.7,��
2016/02/18,18:50,0.461,0.267,0.483,0.434,0.397,0.219,0.192,��쐼,5.9,��
2016/02/18,19:00,0.461,0.267,0.484,0.435,0.397,0.220,0.193,��,7.1,��
2016/02/18,19:10,0.461,0.267,0.483,0.437,0.397,0.220,0.193,��,8.2,��
2016/02/18,19:20,0.462,0.267,0.483,0.436,0.399,0.219,0.192,��,8.7,��
2016/02/18,19:30,0.462,0.268,0.482,0.433,0.399,0.219,0.192,��,8.5,��
2016/02/18,19:40,0.462,0.267,0.482,0.435,0.397,0.219,0.193,��쐼,9.5,��
2016/02/18,19:50,0.461,0.266,0.484,0.436,0.398,0.220,0.193,��쐼,10.0,��
2016/02/18,20:00,0.461,0.266,0.485,0.436,0.397,0.219,0.193,��쐼,8.9,��
2016/02/18,20:10,0.461,0.268,0.482,0.434,0.399,0.219,0.193,��쐼,8.1,��
2016/02/18,20:20,0.461,0.267,0.483,0.435,0.399,0.220,0.193,��쐼,7.9,��
2016/02/18,20:30,0.461,0.266,0.483,0.436,0.396,0.219,0.193,��쐼,8.1,��
2016/02/18,20:40,0.461,0.267,0.483,0.436,0.396,0.221,0.193,��쐼,8.2,��
2016/02/18,20:50,0.463,0.267,0.482,0.434,0.400,0.219,0.193,��쐼,7.6,��
2016/02/18,21:00,0.459,0.268,0.482,0.435,0.397,0.220,0.193,��쐼,8.1,��
2016/02/18,21:10,0.461,0.267,0.483,0.434,0.397,0.219,0.192,��쐼,8.7,��
2016/02/18,21:20,0.462,0.266,0.484,0.434,0.398,0.218,0.193,��쐼,8.7,��
2016/02/18,21:30,0.462,0.267,0.483,0.434,0.399,0.219,0.193,��쐼,10.0,��
2016/02/18,21:40,0.461,0.267,0.480,0.436,0.397,0.219,0.193,��쐼,10.6,��
2016/02/18,21:50,0.461,0.267,0.483,0.435,0.397,0.220,0.192,��쐼,12.0,��
2016/02/18,22:00,0.460,0.268,0.486,0.434,0.398,0.218,0.192,��쐼,11.2,��
2016/02/18,22:10,0.460,0.267,0.483,0.436,0.398,0.220,0.193,��쐼,10.0,��
2016/02/18,22:20,0.459,0.266,0.482,0.437,0.398,0.219,0.192,��쐼,9.8,��
2016/02/18,22:30,0.460,0.267,0.483,0.434,0.397,0.220,0.192,��쐼,10.9,��
2016/02/18,22:40,0.460,0.267,0.484,0.434,0.397,0.219,0.192,�쐼,8.7,��
2016/02/18,22:50,0.460,0.267,0.482,0.436,0.399,0.220,0.192,�쐼,8.5,��
2016/02/18,23:00,0.461,0.267,0.482,0.436,0.398,0.219,0.193,�쐼,12.3,��
2016/02/18,23:10,0.461,0.268,0.484,0.436,0.397,0.220,0.194,��쐼,10.9,��
2016/02/18,23:20,0.463,0.267,0.483,0.436,0.399,0.221,0.194,��쐼,11.4,��
2016/02/18,23:30,0.460,0.268,0.482,0.435,0.399,0.219,0.193,��쐼,10.1,��
2016/02/18,23:40,0.461,0.267,0.482,0.437,0.398,0.219,0.192,��쐼,10.4,��
2016/02/18,23:50,0.461,0.267,0.484,0.434,0.396,0.219,0.193,�쐼,11.7,��
